Regional Weather Roundup
Issued by NWS Goodland, KS

Home | Current Version | Previous Version | Graphics & Text | Print | Product List | Glossary On
Versions: 1 2 3 4 5 6 7 8 9 10 11 12 13 14 15 16 17 18 19 20 21 22 23 24 25 26 27 28 29 30 31 32 33 34 35 36 37 38 39 40 41 42 43 44 45 46 47 48 49 50
000
ASUS43 KGLD 240259
RWRGLD

GOODLAND FORECAST AREA HOURLY WEATHER ROUNDUP
NATIONAL WEATHER SERVICE GOODLAND KS
800 PM MST FRI FEB 23 2018

...OFFICIAL OBSERVATIONS...

CITY           SKY/WX    TMP DP  RH WIND       PRES   REMARKS
GOODLAND KS    PTCLDY    22  19  89 SE14      30.01S WCI   9
HILL CITY KS   CLOUDY    24  20  84 E9        30.12S
IMPERIAL NEB   PTCLDY    19  17  92 NE7       30.07R
MCCOOK NEB     CLOUDY    24  22  91 E14       30.11R WCI  12
AKRON CO       CLOUDY    26  23  88 E13       29.95S WCI  15
BURLINGTON CO  CLOUDY    26  23  88 SE13      29.96F WCI  15
LIMON CO       CLOUDY    21  21 100 SE12      29.92S WCI   9
$$

...UNOFFICIAL OBSERVATIONS...

CITY           SKY/WX    TMP DP  RH WIND       PRES   REMARKS
NORTON KS      CLOUDY    25  19  80 E15       30.12  WCI  12
SHARON SPRINGS   N/A     25  22  86 SE9         N/A
KIT CARSON CO    N/A     25  22  87 MISG        N/A
$$




USA.gov is the U.S. government's official web portal to all federal, state and local government web resources and services.